Regional Weather Roundup
Issued by NWS

Home | Current Version | Previous Version | Text Only | Print | Product List | Glossary Off
Versions: 1 2 3 4 5 6 7 8 9 10 11 12 13 14 15 16 17 18 19 20 21 22 23 24 25 26 27 28 29 30 31 32 33 34 35 36 37 38 39 40 41 42 43 44 45 46 47 48 49 50

000
ASUS45 KBOU 210310
RWRCO

WEATHER ROUNDUP FOR COLORADO
NATIONAL WEATHER SERVICE DENVER/BOULDER CO
800 PM MST SAT JAN 20 2018

NOTE: "FAIR" INDICATES FEW OR NO CLOUDS BELOW 12000 FEET WITH NO
SIGNIFICANT WEATHER AND/OR OBSTRUCTIONS TO VISIBILITY.

COZ001>005-013-030-031-210400-
...NORTHWEST COLORADO...

CITY           SKY/WX    TMP DP  RH WIND       PRES   REMARKS
CRAIG          LGT SNOW  30  26  85 W22       29.73R VSB 3/4 WCI  17
HAYDEN         LGT RAIN N/A N/A N/A W5        29.69S
MEEKER         FLURRIES  34  33  96 W7        29.70S WCI  28
RABBIT EARS PA LGT SNOW  27  27 100 S7        29.71F WCI  19
STEAMBOAT SPGS MOCLDY    32  30  94 SW3       29.66F
WALDEN         CLOUDY    34  28  80 SW6       29.69S WCI  29
$$

COZ006>008-011-210400-
...WEST CENTRAL VALLEYS...

CITY           SKY/WX    TMP DP  RH WIND       PRES   REMARKS
GRAND JUNCTION LGT RAIN  36  35  96 N16       29.74R
MONTROSE       CLOUDY    39  34  82 W8        29.74R
EAGLE          LGT RAIN  38  33  82 NW6       29.71S
RIFLE          LGT RAIN  37  35  92 W16G23    29.72R
DELTA          RAIN      44  36  72 W23       29.73R
NUCLA          CLOUDY    36  32  87 SE8       29.80S
$$

COZ017>023-064>068-210400-
...SOUTHWEST COLORADO...

CITY           SKY/WX    TMP DP  RH WIND       PRES   REMARKS
DURANGO        LGT SNOW  32  32 100 W7        29.78R VSB 1   WCI  26
CORTEZ         CLOUDY    33  31  92 SW5       29.80F WCI  29
PAGOSA SPRINGS LGT SNOW  33  33 100 CALM      29.79F
TELLURIDE      LGT SNOW  30  30  99 NW3       29.76S VSB 3/4
WOLF CREEK PAS HVY SNOW  21  21 100 MISG      29.84F VSB 1/4
$$

COZ009-010-012-014-032>034-037-058>063-210400-
...CENTRAL COLORADO...

CITY           SKY/WX    TMP DP  RH WIND       PRES   REMARKS
ASPEN          CLOUDY    35  31  85 NW7       29.70S WCI  29
BUENA VISTA    CLOUDY    42  15  34 SE15G21   29.72S
COPPER MTN     NOT AVBL
BERTHOUD PASS  MOCLDY    21  10  63 S20G35    29.78F WCI   6
COTTONWOOD PAS   N/A     41  19  42 CALM      29.76F
GUNNISON       FAIR      32  22  66 S3        29.72F
KREMMLING      DRIZZLE   41  32  70 W14G21    29.70R
LEADVILLE      CLOUDY    28  22  78 S3        29.73F
MONARCH PASS   CLOUDY    23  18  80 SW22      29.91F WCI   8
SALIDA         FAIR      40  17  40 W5        29.80S
SUNLIGHT       LGT SNOW  25  23  93 S12G22    29.76F WCI  14
WILKERSON PASS CLOUDY    28  12  50 SW8       29.83F WCI  20
$$

COZ069>075-210400-
...SAN LUIS VALLEY/SANGRE DE CRISTO MOUNTAINS...

CITY           SKY/WX    TMP DP  RH WIND       PRES   REMARKS
ALAMOSA        FAIR      35  13  40 SW13      29.75F WCI  26
DEL NORTE      CLOUDY    33  27  79 W5        29.76F WCI  28
LA VETA PASS   FAIR      32  16  51 S22G39      N/A  WCI  19
SAGUACHE       FAIR      34  18  51 W3        29.76F
$$

COZ035-036-038>040-210400-
...NORTHERN COLORADO FRONT RANGE...

CITY           SKY/WX    TMP DP  RH WIND       PRES   REMARKS
DENVER INTL AP CLOUDY    28  25  88 E7        29.81S WCI  21
DMNS CITY PARK NOT AVBL
AURORA         CLOUDY    29  28  98 NE8       29.81R WCI  21
FRONT RANGE AP CLOUDY    30  28  93 NE8       29.81S WCI  23
ERIE MUNI ARPT CLOUDY    32  28  85 NE8       29.88S WCI  25
BOULDER MUN AP CLOUDY    32  30  93 NE6       29.82S WCI  26
CENTENNIAL     CLOUDY    30  26  85 NE10      29.79F WCI  21
BROOMFIELD     CLOUDY    32  28  86 N10       29.81F WCI  24
FORT COLLINS   CLOUDY    32  29  88 NE8       29.83F WCI  25
LONGMONT       CLOUDY    35  29  80 NE7       29.85S WCI  29
$$

COZ041-046-047-076>085-087-088-210400-
...PIKES PEAK/PALMER DIVIDE AND SOUTHERN FOOTHILLS...

CITY           SKY/WX    TMP DP  RH WIND       PRES   REMARKS
COLO. SPRINGS  MOCLDY    39  24  55 NW9       29.73R
A. F. ACADEMY  FAIR      33  24  67 N16       29.74S WCI  23
SCHRIEVER AFB  MOCLDY    33  25  74 NE17G28   29.72F WCI  22
CHEYENNE MTN   MOCLDY    38  21  49 NW16      29.68R
ELLICOTT         N/A    N/A N/A N/A NE10      29.71F
FALCON         FAIR      30  24  78 N15       29.75R WCI  19
FORT CARSON    FAIR      41  22  47 N18G25    29.71R
LIMON          FAIR      27  25  92 N14       29.78R WCI  16
MONUMENT HILL  MOCLDY    27  27 100 NE6       29.78F WCI  20
CANON CITY     FAIR      52  19  28 SW8       29.66R
WALSENBURG     FAIR      45  19  36 W8        29.69F
TRINIDAD       FAIR      52  15  23 CALM      29.69F
$$

COZ042>045-048>051-090-091-210400-
...NORTHEAST COLORADO...

CITY           SKY/WX    TMP DP  RH WIND       PRES   REMARKS
GREELEY ARPT   CLOUDY    32  29  88 NE12      29.84S WCI  23
AKRON          CLOUDY    30  28  92 N17       29.83S WCI  18
BURLINGTON     FAIR      31  25  78 N7        29.77S WCI  24
WRAY           MOCLDY    32  30  93 N13       29.82R WCI  22
YUMA           CLOUDY    30  25  80 N10       29.83R WCI  21
STERLING       CLOUDY    32  30  93 N10       29.86R WCI  24
HOLYOKE        FAIR      34  30  86 N10       29.85R WCI  26
FORT MORGAN    MOCLDY    31  27  83 NE15      29.84F WCI  20
$$

COZ086-089-092>099-210400-
...SOUTHEAST COLORADO...

CITY           SKY/WX    TMP DP  RH WIND       PRES   REMARKS
PUEBLO         FAIR      44  25  47 NE14      29.68R
LA JUNTA       FAIR      42  24  49 NE14      29.69R
LAMAR          FAIR      40  24  53 E12       29.68F
SPRINGFIELD      N/A     50  15  24 S15       29.66S
$$



USA.gov is the U.S. government's official web portal to all federal, state and local government web resources and services.